Погода в Оймяконе

Погода в Оймяконе : погода сейчас, прогноз погоды и архив. Всё, что Вы хотите узнать о погоде в Оймяконе!

Хотите узнать прогноз погоды в Оймяконе? Тогда Вам сюда: Погода в Оймяконе

Поиск расширенной информации на нашем сайте:

Другие новости

Новости СМИ2

Главная страница сайта

Новости сайта

02.10.2013

Напоминаем, что на нашем новом сайте вы можете получить высокодетализированные прогнозы погоды по пунктам России, СНГ и мира (включающие важные для авиации метеовеличины, такие как направление и скорость ветра, видимость, явления погоды, количество и форма облачности, нижняя и верхняя граница облачности), а также ознакомиться с разнообразными материалами по авиационной метеорологии и подборкой полезных ссылок на эту тему.

Сайт Метеоцентр.Азия посвящён разработке технологий оптимизации авиаметеорологического обслуживания, включая проектирование и перспективное создание нескольких автоматизированных авиаметеорологических систем:
- система выпуска высокодетальных прогностических карт явлений погоды для нижнего воздушного пространства по России и ближнему зарубежью;
- система верификации прогнозов TAF (выпускаемых синоптиками официальных АМСГ РФ и ближнего зарубежья) и AUTOTAF (выпускаемых сайтом Метеоцентр.Азия) - выявление ошибок, онлайн-сопоставление с фактической погодой METAR, автоматическое внесение коррективов в прогнозы при резком отклонении фактической погоды от прогноза, подсчёт оправдываемости прогнозов по элементам и в целом;
- система обработки, анализа и отображения авиаметеорологической информации для применения провайдерами метеорологической информации.

Рекомендуем: Заливка фундамента в Калуге облицовка камнем фундамента дома Калуга.

Погода в Оймяконе - сегодня

Время (UTC), дата Ветер
(°,м/с) 
Видим.   Явления Облачность Т
(°С)
Тd
(°С)
f(%) Тe
(°С)
Pmin
(гПа)
dP
(гПа)
Po
(мм)
O2
(г/м3)
Тmin Tmax R s Состояние
почвы
09 22.04.17 тихо ()   20000 м    1/0 верхняя 
[Ci fib]
+5.1 -5.9 45 +5  1019.5  0.3  699  277    +6.6       
12 22.04.17 250 (З) 20000 м    ясно 
-4.9 -9.4 71 -4  1023.8  0.8  699  288           
15 22.04.17 210 (ЮЗ) 20000 м    ясно 
-9.6 -11.7 85 -9  1026.4  0.7  700  293           
18 22.04.17 тихо ()   20000 м    ясно 
-13.1 -13.7 95 -13  1028.6  0.8  700  298           
21 22.04.17 190 (Ю) 20000 м    ясно 
-10.6 -11.9 90 -10  1029  1.2  701  295  -15.7      16  мокрый или
старый снег
50-90% 
00 23.04.17 240 (ЮЗ) 20000 м    ясно 
-0.8 -7.7 59 1025.9  0.4  702  284           
03 23.04.17 340 (С) 20000 м    ясно 
+2.9 -5.9 52 +4  1023.5  -0.9  701  280           
06 23.04.17 120 (ЮВ) 20000 м    1/0 верхняя 
[Ci fib]
+5.8 -4.8 46 +6  1022.2  -0.3  701  277           
09 23.04.17 100 (В) 20000 м    1/0 верхняя 
[Ci fib]
+5.7 -5.3 45 +5  1022.4  0.1  701  277    +7.1       
12 23.04.17 тихо ()   20000 м    1/0 верхняя 
[Ci fib]
-1.5 -6.7 68 -2  1026.3  1.3  702  285           
15 23.04.17 240 (ЮЗ) 20000 м    ясно 
-9.5 -12.1 81 -9  1029.9  0.6  702  294           
18 23.04.17 180 (Ю) 20000 м    4/0 верхняя 
[Ci fib]
-14.5 -15.1 95 -15  1032.7  0.8  703  300           
21 23.04.17 180 (Ю) 20000 м    6/0 верхняя 
[Ci fib]
-9 -11.9 79 -11  1031.4  0.7  703  294  -14.7      11  мокрый или
старый снег
50-90% 
00 24.04.17 170 (Ю) 20000 м    9/0 верхняя 
[Ci fib]
+0.1 -6.7 60 -1  1027  -1  703  284           
03 24.04.17 180 (Ю) 20000 м    3/0 верхняя 
[Ci fib]
+4.2 -5.6 49 +5  1023.9  -1.5  701  279           
06 24.04.17 200 (Ю) 20000 м    3/0 верхняя 
[Ci fib]
+6.2 -4.2 47 +7  1022.1  -1.1  701  276           
09 24.04.17 140 (ЮВ) 20000 м    1/0 верхняя 
[Ci fib]
+5.1 -5.9 45 +6  1020.9  -1.4  700  277    +6.5       
12 24.04.17 280 (З) 20000 м    1/0 верхняя 
[Ci fib]
-4.2 -9.2 68 -5  1023.9  -0.2  699  287           
15 24.04.17 200 (Ю) 20000 м    1/0 верхняя 
[Ci fib]
-8.8 -10.3 89 -9  1025.1  -0.4  699  292           
18 24.04.17 260 (З) 20000 м    3/0 средняя, верхняя 
[Ac trans|Ci fib]
-13.2 -13.8 95 -13  1026.7  699  297           
21 24.04.17 190 (Ю) 20000 м    3/0 средняя, верхняя 
[Ac trans|Ci fib]
-8.2 -10.9 81 -10  1024.6  -0.3  699  291  -13.5      мокрый или
старый снег
50-90% 
00 25.04.17 180 (Ю) 20000 м    5/0 верхняя 
[Ci fib]
+0.4 -7.5 55 +1  1020.3  -1.2  698  281           
03 25.04.17 040 (СВ) 20000 м    5/3 1000 м верхняя 
[Cu hum|Ci fib]
+4.9 -4.2 52 +5  1016.4  -2  697  276           
06 25.04.17 330 (СЗ) 20000 м    9/5 1000 м 
[Cu med, cong]
+6.1 -4.3 47 +6  1014.9  -1.1  696  275           
09 25.04.17 130 (ЮВ) 20000 м    5/5 1000 м 
[Sc diur, vesp]
+5.3 -4.3 50 +6  1014.1  -0.9  695  275    +7.2       
Время (UTC), дата Ветер
(°,м/с) 
Видим.   Явления Облачность Т
(°С)
Тd
(°С)
f(%) Тe
(°С)
Pmin
(гПа)
dP
(гПа)
Po
(мм)
O2
(г/м3)
Тmin Tmax R s Состояние
почвы

Для получения пояснительной информации подведите курсор к названию столбца.

ПОГОДА в Оймяконе - архив

Всё, что Вы хотите узнать о погоде в Оймяконе - удобно и подробно!

Выберите нужную дату (начиная с 1 января 2015* года) и нажмите кнопку "Найти".
Будут отображены архивные сводки погоды по пункту Оймякон, начиная с указанной даты.


Отображать данные в формате CSV (для использования в таблицах Excel)


Внимание! Наш архив погоды предназначен исключительно для личного некоммерческого использования в познавательных целях. Если Вам необходимы официальные справки о состоянии погоды (для производственных, юридических, коммерческих и т.п. целей), обращайтесь в органы Росгидромета.

*Примечание: данная дата относится к архиву по метеостанциям СССР (Россия, СНГ, Балтия).
Архив по метеостанциям Зарубежной Европы и Азии (кроме Китая) хранится 10 дней, по другим регионам земного шара (Китай, Африка, Америка, Австралия, Океания) - 1 день.

Оймякон - район местоположения метеостанции


Название, широта, долгота, высота метеостанции:
Оймякон 63.2°ш. 143.2°д. 741 м над ур. моря [Российская Федерация]

Дополнительная информация

В oтличие oт бoльшинства пoгoдных сайтoв мы публикуем пoдрoбную метеoинфoрмацию в детальнoм прoфессиoнальнoм фoрмате.

Характеристики температуры и влажнoсти вoздуха измеряются на высoте 2 м в тени вдали oт зданий и деревьев.
Скoрoсть ветра измеряется на высoте 10 м (на урoвне рoста челoвека скoрoсть ветра ниже в 1.5-2 раза). Если метеoстанция нахoдится в гoрoде или в лесу, тo скoрoсть ветра занижена на 2-4 м/с пo сравнению с oткрытым местoм. Скoрoсть ветра над акватoриями крупных рек и oзёр, а также на вершинах хoлмoв на 2-5 м/с выше, чем в oбычных услoвиях.
Атмoсфернoе давление в разных тoчках местнoсти мoжет значительнo oтличаться oт давления на метеoстанции, в зависимoсти oт услoвий рельефа (при пoдъёме на 10 м давление пoнижается примернo на 1 мм рт.ст.).